MIDAS 3 DEB, 25793

Orbit data source: Space-Track

MIDAS 3 DEB, 25793 is space debris in LEO originally from a launch on Wed, 12 Jul 1961 UTC launched from the Air Force Western Test Range (AFWTR). Debris objects in space refer to the collection of defunct objects orbiting the Earth. Examples of debris include non-operational satellites, rocket bodies, and fragments generated from explosions, collisions, or faulty payload assembly.

Loading next visibility...
Identifier
25793, 1961-018F
Orbit
LEO
Last TLE update
3 days ago
Origin
Manufacturer
Unknown
Mission
Spacecraft
Bus & Motor
Unknown
Mass
Unknown
Launch date (UTC)
1961-07-12 (64 years ago)
Launch vehicle
Unknown
Launch site
Air Force Western Test Range (AFWTR)
Object type
Payload
Rocket body
Debris
Shape & HBR
Unknown
Radar Cross Section
Medium (>0.1 m² and <1 m²)

Expand to show TLE details & history

TLE from 3 days ago
0 MIDAS 3 DEB
1 25793U 61018F   25185.46121870 -.00000017  00000-0 -63783-2 0  9991
2 25793  91.1258 203.9168 0130587  95.0924 266.4869  8.93205875370903
Epoch: 2025-07-04T11:04Z
TLE epoch observation values (Epoch: 2025-07-04T11:04:09.295Z)
Latitude
0.00001°
Longitude
115.16479°
Altitude
3,445.847 km
Speed
6.367 km/s
True Right ascension
13h 35m 40s
True Declination
0° 00' 00"
Sunlit
Object was in daylight at epoch
Visualization orbit readout
Latitude
54.47876°
Longitude
-63.15572°
Altitude
3,335.226 km
Speed
6.446 km/s
Apparent Right ascension
00h 30m 43s
Apparent Declination
20° 56' 46"
Sunlit
Object is in daylight
Visualization observer readout
Local Sidereal Time
11:07:34
Azimuth
338.337° N
Elevation
-26.122°
Doppler factor
1
Orbital elements
Apogee altitude
3,559.957 km
Perigee altitude
3,303.746 km
Semi-major axis
9,809.988 km
Eccentricity
0.01306
Inclination
91.1258°
RAAN
203.9168°
Arg. of periapsis
95.0924°
True anomaly
Unknown
Mean anomaly
266.4869°
Eccentric anomaly
Unknown
Mean motion
2.23378 °/min
Orbital period
161.16 mins
BSTAR
-0.0063783
Loading maneuver chart data...
Loading SW <> Apogee altitude chart data...
Loading historical data...
Loading historical data...
Loading historical data...
Loading historical data...
Loading historical data...
Loading historical data...
Loading historical data...
Other satellites on launch #18 in the year 1961 (1961-07-12 UTC)

MIDAS 3 DEB Visibility forecast

Observer location: undefined°, undefined°

Span
Click to sort rows by Start time (UTC) header in descending order
Start Az.
Max El. time (UTC)
Max El. Az.
Max El.
End time (UTC)
End Az.
34 mins2025-07-07 00:54:19.723Z163.529° S2025-07-07 01:11:19.723Z81.544° E44.439°2025-07-07 01:28:19.723Z358.786° N
26 mins2025-07-07 03:41:19.723Z237.167° WSW2025-07-07 03:53:19.723Z286.246° WNW25.011°2025-07-07 04:07:19.723Z342.996° N
33 mins2025-07-07 12:24:19.723Z8.694° NNE2025-07-07 12:40:19.723Z88.711° E40.791°2025-07-07 12:57:19.723Z165.694° S
29 mins2025-07-07 15:05:19.723Z352.986° N2025-07-07 15:19:19.723Z291.925° WNW33.301°2025-07-07 15:34:19.723Z230.511° WSW
21 mins2025-07-07 22:36:19.723Z93.935° ESE2025-07-07 22:46:19.723Z53.959° ENE21.358°2025-07-07 22:57:19.723Z11.911° NNE
|